Location: San Gennaro Vesuviano
(40.8833°N, 14.5333°E)
Time: 20:46:56
(UTC+00:00)

Meteor 2-21 Rocket - Pass Details

Date: 22 April 2021
Orbit: 935 x 968 km, 82.5° (Epoch: 10 May)

Event Time Altitude Azimuth Distance (km) Brightness Sun altitude
Rises 19:35:00 0° 354° (N) 3,601 8.1 -18.7°
Reaches altitude 10° 19:37:31 10° 357° (N) 2,655 7.3 -19.0°
Maximum altitude 19:43:33 68° 81° (E) 1,006 4.4 -19.9°
Enters shadow 19:46:19 34° 154° (SSE) 1,512 5.0 -20.3°
